Regional Weather Roundup
Issued by NWS Charleston, WV

Home | Current Version | Previous Version | Graphics & Text | Print | Product List | Glossary On
Versions: 1 2 3 4 5 6 7 8 9 10 11 12 13 14 15 16 17 18 19 20 21 22 23 24 25 26 27
000
ASUS41 KRLX 261910
RWRRLX
West Virginia Regional Weather Roundup
National Weather Service Charleston WV
300 PM EDT TUE JUL 26 2016

Note: "fair" indicates few or no clouds below 12,000 feet with no
significant weather and/or obstructions to visibility.

WVZ003-262000-
Northern Panhandle of West Virginia

CITY           SKY/WX    TMP DP  RH WIND       PRES   REMARKS
WHEELING         N/A     90  63  40 VRB3      30.02F
$$

WVZ009-262000-
Northwest West Virginia

CITY           SKY/WX    TMP DP  RH WIND       PRES   REMARKS
PARKERSBURG    PTSUNNY   86  74  67 NW5       30.03F
$$

WVZ006-262000-
Western West Virginia

CITY           SKY/WX    TMP DP  RH WIND       PRES   REMARKS
HUNTINGTON       N/A     91  73  55 VRB5      29.99F HX  99
$$

WVZ015-262000-
West Central West Virginia

CITY           SKY/WX    TMP DP  RH WIND       PRES   REMARKS
CHARLESTON     RAIN      82  74  76 NW3       30.02F
$$

WVZ022-031-262000-
North Central West Virginia

CITY           SKY/WX    TMP DP  RH WIND       PRES   REMARKS
CLARKSBURG     PTSUNNY   87  69  54 NW3       30.03F
MORGANTOWN       N/A     85  69  58 S3        30.04F
$$

WVZ025-035-042-045-262000-
Southern West Virginia

CITY           SKY/WX    TMP DP  RH WIND       PRES   REMARKS
BECKLEY        PTSUNNY   83  69  62 NW9       30.11F
LOGAN            N/A     88  73  62 VRB5      30.04F HX  96
BLUEFIELD        N/A     84  65  52 W9        30.14F
LEWISBURG        N/A     85  69  57 W9        30.09F
$$

WVZ047-262000-
Northern Mountains of West Virginia

CITY           SKY/WX    TMP DP  RH WIND       PRES   REMARKS
ELKINS           N/A     85  68  56 N8        30.08F
$$

WVZ052-262000-
Eastern Panhandle of West Virginia

CITY           SKY/WX    TMP DP  RH WIND       PRES   REMARKS
MARTINSBURG      N/A     89  66  46 NW10      29.97F
PETERSBURG     CLOUDY    92  69  48 E7        29.98F HX  97
$$




USA.gov is the U.S. government's official web portal to all federal, state and local government web resources and services.